Tracking 23758 objects as of 26-Oct-2021
HD Live streaming from Space Station
objects crossing your sky now

ESAIL

Track ESAIL now!
10-day predictions


NORAD ID: 46273
Int'l Code: 2020-061B
Perigee: 521.4 km
Apogee: 528.4 km
Inclination: 97.4 °
Period: 95.0 minutes
Semi major axis: 6895 km
RCS: Unknown
Launch date: September 3, 2020
Source: Canada (CA)
Launch site: FRENCH GUIANA (FRGUI)
aabbcc
Your satellite tracking list
Your tracking list is empty




NASA's NSSDC Master Catalog

Two Line Element Set (TLE):
1 46273U 20061B   21299.54172972  .00001333  00000-0  72690-4 0  9999
2 46273  97.4264  10.3343 0005103 210.1096 149.9845 15.16051655 63372
Source of the keplerian elements: AFSPC